Regional Weather Roundup
Issued by NWS

Home | Current Version | Previous Version | Graphics & Text | Print | Product List | Glossary On
Versions: 1 2 3 4 5 6 7 8 9 10 11 12 13 14 15 16 17 18 19 20 21 22 23 24 25 26 27 28 29 30 31 32 33 34 35 36 37 38 39 40 41 42 43 44 45 46 47 48 49 50
000
ASUS43 KIND 280309
RWRIN

WEATHER ROUNDUP FOR INDIANA
NATIONAL WEATHER SERVICE INDIANAPOLIS IN
1100 PM EDT WED MAY 27 2015

NOTE: "FAIR" INDICATES FEW OR NO CLOUDS BELOW 12,000 FEET WITH NO
SIGNIFICANT WEATHER AND/OR OBSTRUCTIONS TO VISIBILITY.

* - STATION DOES NOT REPORT WEATHER SUCH AS PRECIPITATION OR FOG.

+ - STATION NOT QUALITY CONTROLLED BY THE NATIONAL WEATHER SERVICE.
    USE DATA WITH CAUTION...ESPECIALLY DEWPOINT AND RELATIVE
    HUMIDITY OBSERVATIONS.

INZ001>003-010>013-019-020-280400-
NORTHWEST INDIANA

CITY           SKY/WX    TMP DP  RH WIND       PRES   REMARKS
GARY /AIRPORT/ CLEAR     59  57  94 CALM      30.12R
KNOX *+        CLEAR     59  59 100 CALM      30.12R
LA PORTE +     PTCLDY    61  55  80 NW3       30.13R
MICHIGAN CITY+ CLEAR     55  55 100 CALM      30.13R
MONTICELLO +   CLEAR     65  59  78 N5        30.12R
RENSSELAER +   CLEAR     64  55  72 N6        30.12R
VALPARAISO     CLEAR     62  55  77 CALM      30.13R

$$

LMZ046-743>745-280400-
SOUTHERN LAKE MICHIGAN

STATION/POSITION TIME  TEMP    WIND        PRES    WAVE
                       AIR SEA DIR/SP/G            HT
                 (UTC) (F)     (DEG/KT/KT) (MB)    (FT)
BURNS HARBOR     0300   62      80/  7/  8 1020.3S
MICHIGAN CITY    0300   59      30/  4/  4   N/A
5NW MICH CITY    0300   56 53  120/  2/  4   N/A     1

$$

INZ004-005-014>016-021>024-280400-
NORTH CENTRAL INDIANA

CITY           SKY/WX    TMP DP  RH WIND       PRES   REMARKS
GOSHEN         CLEAR     60  55  83 NW7       30.11R
LOGANSPORT +   CLEAR     63  55  77 N7        30.13R
PERU/GRISSOM   CLEAR     65  58  77 N5        30.10R
ROCHESTER +    CLEAR     64  59  82 CALM      30.13R
SOUTH BEND     CLEAR     59  55  87 NW7       30.13R
WARSAW +       CLEAR     61  55  82 CALM      30.12R

$$

INZ006>009-017-018-025>027-280400-
NORTHEAST INDIANA

CITY           SKY/WX    TMP DP  RH WIND       PRES   REMARKS
ANGOLA *+      CLEAR     64  57  77 NW6       30.10R
AUBURN +       FAIR      63  55  77 NW7       30.11R
FORT WAYNE     PTCLDY    67  59  75 NW6       30.11R
HUNTINGTON +   CLEAR     65  59  81 CALM      30.11R

$$

INZ028-029-035-036-043>045-051>053-280400-
WEST CENTRAL INDIANA

CITY           SKY/WX    TMP DP  RH WIND       PRES   REMARKS
CRAWFORDSVL +  CLEAR     63  56  80 CALM      30.11R
GREENCASTLE +  PTCLDY    64  59  82 CALM      30.12R
LAFAYETTE      CLEAR     65  57  75 N6        30.11R
TERRE HAUTE    PTCLDY    68  59  73 CALM      30.11R

$$

INZ030>032-037>040-046>048-054>057-064-065-280400-
CENTRAL INDIANA

CITY           SKY/WX    TMP DP  RH WIND       PRES   REMARKS
CP ATTERBURY + CLOUDY    70  63  78 S3        30.12R
FISHERS *+     MOCLDY    63  63 100 CALM      30.12R
FRANKFORT +    FAIR      67  60  77 N7        30.13R
GREENWOOD *+   CLOUDY    72  61  68 S5        30.12R
INDIANAPOLIS   MOCLDY    68  62  81 SW6       30.10R
-EAGLE CREEK   PTCLDY    66  64  93 CALM      30.11R
KOKOMO *+      CLEAR     66  59  77 N6        30.11R
MARION +       FAIR      68  60  75 N6        30.12R
MT COMFORT *+  MOCLDY    70  59  68 SW5       30.12R
SHELBYVILLE    CLOUDY    73  63  70 CALM      30.11R
ZIONSVILLE +   PTCLDY    66  61  83 W3        30.12R

$$

INZ033-034-041-042-049-050-058-059-280400-
EAST CENTRAL INDIANA

CITY           SKY/WX    TMP DP  RH WIND       PRES   REMARKS
MUNCIE         PTCLDY    69  62  78 SW6       30.11R

$$

INZ060-061-067>069-081>083-085>088-280400-
SOUTHWEST INDIANA

CITY           SKY/WX    TMP DP  RH WIND       PRES   REMARKS
EVANSVILLE     CLOUDY    69  64  84 S6        30.14R
HUNTINGBURG *+ CLOUDY    66  61  82 S6        30.14R
WASHINGTON +   CLOUDY    70  61  73 S8        30.12R

$$

INZ062-063-066-070>080-084-089>092-280400-
SOUTH CENTRAL AND SOUTHEAST INDIANA

CITY           SKY/WX    TMP DP  RH WIND       PRES   REMARKS
BLOOMINGTON    MOCLDY    71  64  78 SW8       30.12R
MADISON *+     CLOUDY    66  61  82 S8        30.16R
NORTH VERNON + CLOUDY    68  68 100 S6        30.13R
SEYMOUR +      CLOUDY    70  63  78 S8        30.12R

$$




USA.gov is the U.S. government's official web portal to all federal, state and local government web resources and services.